Temp
4 4 4 4 4 4 4 4 4 3 3 3 2 3 2 1 1 2 2 3 3 4 4 5 5 5 6
3 3 4 4 4 4 4 3 3 3 3 3 3 3 4 2 2 2 2 2 2 3 3 4 4 5 5
2 2 3 3 3 4 4 4 3 3 3 2 3 3 3 3 2 2 2 2 2 2 2 3 3 4 4
2 2 2 2 2 2 3 3 3 3 3 3 4 4 4 3 2 2 2 2 2 1 1 2 2 3 4
1 2 3 2 1 1 2 2 2 3 4 3 3 3 2 2 3 3 3 2 2 2 2 1 1 2 3
1 1 2 2 1 0 -0 -0 1 2 2 3 3 4 3 3 3 3 3 4 3 2 2 2 1 1 1
1 2 2 2 0 0 -0 -0 -0 0 -1 1 2 3 3 3 3 3 3 3 3 3 3 2 1 0 0
1 2 1 1 0 -0 -1 -1 -0 0 -1 -1 1 2 2 2 2 2 3 3 3 3 2 1 0 -0 -0
0 0 0 0 0 -2 -2 -2 -2 -1 -1 -2 0 1 1 2 2 2 3 2 2 3 3 1 1 1 2
-0 -0 -0 -0 -1 -1 -2 -2 -4 -4 -3 -2 -2 -2 -2 -1 -0 0 1 1 1 1 1 1 1 1 1
-1 -1 -1 -1 -1 -1 -1 -2 -3 -3 -4 -4 -4 -4 -4 -4 -3 -3 -2 -1 -1 -1 -0 0 0 1 1
-4 -3 -2 -2 -1 -2 -3 -3 -3 -3 -4 -5 -5 -5 -4 -4 -5 -4 -3 -3 -3 -2 -1 -1 -1 -1 0
-4 -4 -3 -3 -3 -3 -4 -4 -5 -5 -5 -5 -5 -5 -5 -5 -5 -5 -5 -4 -4 -3 -2 -2 -2 -1 -0
-5 -5 -5 -5 -4 -5 -5 -5 -5 -6 -6 -5 -6 -5 -5 -5 -5 -5 -5 -6 -5 -4 -4 -3 -3 -2 -1
-5 -5 -5 -5 -5 -5 -5 -5 -5 -5 -6 -6 -6 -6 -6 -6 -6 -6 -6 -6 -5 -4 -4 -5 -5 -4 -2
-6 -6 -5 -5 -6 -6 -6 -6 -6 -6 -6 -6 -6 -6 -6 -6 -6 -6 -6 -5 -4 -5 -6 -7 -6 -4 -4
-6 -6 -7 -7 -7 -7 -7 -6 -6 -6 -6 -6 -7 -6 -6 -6 -5 -6 -6 -5 -5 -5 -5 -6 -6 -5 -6
Height
1457 1457 1455 1454 1453 1452 1450 1448 1447 1446 1445 1444 1443 1442 1441 1440 1440 1440 1440 1441 1441 1442 1442 1442 1442 1442 1443
1453 1452 1451 1450 1447 1445 1444 1443 1442 1441 1440 1438 1437 1437 1436 1435 1435 1435 1435 1435 1435 1436 1436 1437 1436 1437 1438
1447 1447 1446 1445 1443 1442 1440 1438 1437 1437 1436 1434 1432 1431 1429 1429 1430 1430 1430 1430 1429 1429 1430 1430 1430 1431 1432
1443 1442 1441 1440 1439 1437 1435 1434 1433 1432 1431 1429 1427 1426 1424 1423 1423 1423 1423 1423 1423 1423 1423 1424 1424 1424 1425
1438 1436 1434 1434 1434 1433 1430 1428 1426 1426 1425 1424 1423 1423 1422 1421 1418 1417 1416 1415 1416 1416 1416 1416 1417 1417 1418
1434 1431 1429 1428 1427 1426 1424 1423 1420 1421 1419 1418 1418 1416 1416 1415 1413 1411 1409 1408 1408 1408 1408 1408 1409 1410 1411
1428 1427 1424 1423 1422 1420 1418 1417 1415 1415 1415 1408 1410 1408 1409 1407 1407 1406 1405 1403 1402 1401 1402 1402 1403 1403 1403
1422 1421 1419 1419 1417 1415 1412 1410 1407 1407 1408 1401 1402 1400 1402 1401 1401 1400 1399 1398 1397 1396 1396 1396 1396 1397 1397
1416 1414 1413 1411 1410 1408 1406 1405 1400 1398 1399 1397 1394 1394 1393 1393 1394 1393 1392 1392 1391 1391 1390 1390 1390 1390 1390
1408 1407 1406 1404 1403 1402 1400 1397 1397 1394 1392 1392 1390 1391 1387 1386 1387 1387 1388 1387 1387 1387 1386 1386 1386 1386 1385
1398 1397 1396 1395 1395 1394 1392 1391 1389 1388 1388 1388 1386 1386 1385 1382 1380 1383 1383 1382 1382 1380 1380 1379 1379 1379 1379
1388 1386 1385 1385 1385 1384 1383 1381 1381 1380 1381 1383 1379 1379 1378 1375 1372 1371 1373 1374 1373 1374 1374 1373 1373 1372 1371
1379 1377 1376 1375 1374 1374 1373 1372 1372 1371 1371 1371 1371 1370 1369 1366 1365 1363 1364 1363 1364 1364 1366 1366 1365 1364 1364
1370 1368 1367 1367 1366 1366 1365 1365 1364 1361 1362 1362 1362 1362 1360 1358 1357 1355 1356 1354 1353 1355 1356 1356 1356 1356 1356
1362 1360 1359 1358 1356 1357 1357 1356 1355 1353 1351 1350 1350 1351 1350 1350 1347 1345 1345 1345 1344 1344 1346 1344 1344 1345 1346
1353 1351 1350 1349 1347 1346 1347 1346 1345 1344 1343 1341 1341 1340 1338 1336 1338 1336 1335 1335 1336 1336 1335 1335 1334 1335 1336
1344 1342 1341 1339 1339 1337 1335 1336 1334 1333 1332 1332 1331 1331 1329 1325 1326 1326 1326 1326 1327 1327 1327 1326 1325 1326 1328
Wind_Speed
21 17 17 16 16 16 18 18 18 17 17 18 21 18 17 16 16 15 16 19 20 19 20 20 20 20 20
22 19 18 17 17 17 15 15 16 18 18 15 16 18 18 18 14 17 17 18 19 20 20 21 21 20 19
25 23 20 17 17 16 15 15 16 15 16 19 21 19 18 17 19 19 18 19 21 21 21 22 21 21 22
23 24 23 20 17 18 18 15 16 16 17 20 17 14 15 15 16 17 22 25 25 24 23 24 23 24 23
24 23 23 21 19 18 19 21 22 20 18 16 15 16 17 19 20 21 22 21 24 25 24 25 25 25 25
21 23 22 21 20 20 21 23 27 23 21 22 20 20 20 22 22 21 20 21 22 24 25 21 19 22 24
21 21 21 20 21 22 21 23 27 27 30 33 26 25 19 19 18 18 18 19 19 19 18 17 17 18 19
24 24 25 22 22 23 25 27 29 28 28 36 30 29 22 18 19 21 23 22 20 21 20 19 19 21 21
25 26 25 25 24 22 25 27 31 30 26 28 31 29 25 19 18 18 19 21 23 20 17 16 16 17 17
30 29 28 28 26 25 26 27 24 22 15 15 19 17 13 20 17 14 11 12 14 16 17 19 19 20 21
32 33 31 30 29 28 26 25 27 29 27 23 24 21 19 25 28 27 26 25 26 26 26 25 24 24 24
34 35 34 33 31 28 24 24 25 29 28 27 30 27 29 33 35 34 30 28 27 26 26 26 27 28 28
35 36 33 31 28 25 24 23 24 27 28 29 30 32 34 36 37 39 35 36 34 31 29 30 31 31 32
30 30 28 27 26 24 24 24 26 30 29 28 29 28 33 38 37 39 39 36 35 31 29 29 29 29 28
26 26 28 30 30 27 27 29 31 32 35 36 34 31 31 34 37 38 39 39 39 36 32 32 33 33 29
26 28 29 32 34 35 31 31 33 33 35 35 33 33 31 34 35 37 37 37 34 36 35 30 30 28 26
30 31 33 35 35 33 33 32 34 34 34 34 31 31 32 34 38 33 32 29 27 28 28 28 29 29 26
Wind_Direction
289 296 295 298 294 290 291 293 295 304 301 301 284 293 292 287 275 275 271 265 263 262 261 258 253 248 251
291 296 297 300 300 295 292 291 294 301 304 305 298 299 299 275 274 271 268 264 264 265 263 262 261 255 252
291 297 302 305 302 300 297 293 291 297 304 305 300 294 289 274 264 260 258 263 264 265 263 263 262 258 254
285 292 298 304 303 306 301 296 290 290 297 305 302 294 297 282 279 278 260 257 260 264 266 263 263 262 259
283 289 291 299 301 300 294 297 295 295 295 299 301 302 302 292 282 279 271 265 261 263 265 261 261 262 262
288 287 294 297 298 295 290 291 296 299 296 285 289 287 297 295 289 276 270 269 269 265 267 268 255 253 256
288 290 294 297 295 292 288 283 281 285 287 290 293 289 293 290 291 285 276 273 272 272 271 253 256 257 257
286 292 291 289 285 287 289 287 285 285 287 287 292 291 291 281 276 276 279 279 276 276 272 257 251 256 259
284 284 284 285 287 286 283 286 289 290 287 284 287 292 291 281 273 271 272 275 277 279 272 265 260 261 265
287 286 287 283 279 275 280 280 280 292 294 278 289 294 296 292 283 269 268 279 277 280 280 276 273 271 271
285 284 285 283 282 279 276 272 271 270 277 276 275 276 269 276 276 274 276 275 276 279 281 279 276 273 274
289 288 286 283 282 284 276 267 264 269 274 270 276 273 273 276 278 281 281 276 271 268 268 270 272 273 271
285 288 289 289 288 284 275 268 268 268 266 263 259 266 270 273 276 277 284 281 277 274 271 269 269 268 269
283 289 292 292 290 286 287 286 279 279 278 278 276 273 265 269 273 274 275 272 277 275 277 272 269 268 268
286 289 289 287 285 286 284 282 274 276 283 283 281 278 268 268 270 273 274 273 275 278 277 272 271 271 267
288 284 282 282 283 284 284 274 272 279 280 279 282 282 277 269 268 269 271 269 267 270 276 274 273 269 265
278 278 282 280 281 280 278 277 277 279 278 281 276 269 257 259 276 269 270 272 272 267 267 267 267 268 267